Weather Roundup
Issued by NWS

Home | Current Version | Previous Version | Graphics & Text | Print | Product List | Glossary Off
Versions: 1 2 3 4 5 6 7 8 9 10 11 12 13 14 15 16 17 18 19 20 21 22 23 24 25 26 27 28 29 30 31 32 33 34 35 36 37 38 39 40 41 42 43 44 45 46 47 48 49 50

000
NZUS93 KARX 251059
HRRWXR

CURRENT HOURLY OBSERVATIONS ACROSS
MUCH OF THE UPPER MISSISSIPPI VALLEY
NATIONAL WEATHER SERVICE LA CROSSE WI
600 AM CDT FRI JUL 25 2014


...SOUTHEAST MINNESOTA...


CITY           SKY/WX    TMP DP  RH WIND       PRES   REMARKS
ROCHESTER      TSTM      63  59  87 S12       29.97R FOG
ROCHESTER/MAYO CLOUDY    63  59  88 SE10      29.94R
WINONA         CLOUDY    70  59  68 SW9       29.94R
AUSTIN         RAIN      63  61  94 S7        29.94R
ALBERT LEA     LGT RAIN  64  63  94 SE14      29.88F
DODGE CENTER   TSTM      63  61  94 S14G20    29.93F
PRESTON        TSTM      63  62  96 S13G23    29.96R
OWATONNA       RAIN      64  61  88 SE15      29.87F
FARIBAULT      TSTM      66  61  82 SE9       29.87F
$$

...ELSEWHERE IN MINNESOTA...


CITY           SKY/WX    TMP DP  RH WIND       PRES   REMARKS
MINNEAPOLIS    TSTM      64  63  96 SE14      29.82F FOG
INTNL FALLS    PTCLDY    58  57  97 SE6       29.80F
DULUTH         CLOUDY    62  56  80 SE8       29.84F
RED WING       TSTM      70  59  68 SW10G20   29.90S
REDWOOD FALLS  CLOUDY    65  64  97 SE8       29.76F
MANKATO        CLOUDY    64  59  82 SE14      29.80F
WORTHINGTON    CLOUDY    66  61  82 S17G23    29.85S
FAIRMONT       CLOUDY    66  61  82 SE13      29.83F
$$

...SOUTHWEST WISCONSIN...


CITY           SKY/WX    TMP DP  RH WIND       PRES   REMARKS
LA CROSSE      CLOUDY    69  57  65 S12       29.95S
PRAIRIE DU CHI CLOUDY    66  55  68 SE3       29.99F
BOSCOBEL       LGT RAIN  64  57  78 S10       29.99F
LONE ROCK      NOT AVBL
PLATTEVILLE    CLOUDY    61  58  91 E3        30.05F
FORT MC COY    LGT RAIN  63  57  82 S6        29.94F
CAMP DOUGLAS   LGT RAIN  63  61  94 SE7       29.97F
VIROQUA        CLOUDY    63  57  83 S10G17    29.98F
WIS DELLS      CLOUDY    62  54  75 S9        30.02S
$$

...ELSEWHERE IN WISCONSIN...


CITY           SKY/WX    TMP DP  RH WIND       PRES   REMARKS
MILWAUKEE      MOCLDY    59  46  62 SW9       30.02S
MADISON        LGT RAIN  63  54  72 SW7       30.05R
GREEN BAY      CLEAR     62  54  74 SW6       29.99S
EAU CLAIRE     NOT AVBL
BLACK RVR FLS  DRIZZLE   62  61  96 SE3       29.93F
MEDFORD          N/A     62  59  90 S7        29.95S
WAUSAU         LGT RAIN  63  59  87 S6        29.96S
WIS RAPIDS     LGT RAIN  61  58  90 S6        29.99S
MARSHFIELD     CLOUDY    62  59  90 S7        29.95F
RICE LAKE      CLOUDY    65  58  78 SE7       29.89S
$$

...NORTHEAST IOWA...


CITY           SKY/WX    TMP DP  RH WIND       PRES   REMARKS
WATERLOO       RAIN      62  61  96 S18G25    29.92F
DUBUQUE        LGT RAIN  60  57  89 S12G18    30.03F
DECORAH        CLOUDY    63  59  88 S9        29.98R
MASON CITY     LGT RAIN  65  63  93 E6        29.93R
CHARLES CITY   CLOUDY    63  61  94 VRB7G21   29.95R
OELWEIN        LGT RAIN  63  59  88 S23G30    29.97F
$$

...ELSEWHERE IN IOWA...


CITY           SKY/WX    TMP DP  RH WIND       PRES   REMARKS
DES MOINES     CLOUDY    66  59  78 E12       29.98R
IOWA CITY      LGT RAIN  61  60  97 E3        30.08R
FORT DODGE     CLOUDY    64  59  82 SE18G30   29.90S
MARSHALLTOWN   LGT RAIN  63  62  97 S15G23    30.00F
CEDAR RAPIDS   TSTM      62  59  90 E7        30.05R FOG
$$

...NORTHERN ILLINOIS...


CITY           SKY/WX    TMP DP  RH WIND       PRES   REMARKS
CHICAGO-OHARE  MOCLDY    59  48  67 SW3       30.03F
DUPAGE         CLOUDY    55  52  89 W3        30.06R
CHICAGO-MIDWAY MOCLDY    62  51  67 S5        30.02F
MOLINE         CLOUDY    63  55  75 CALM      30.07R
ROCKFORD       CLOUDY    59  50  72 SW5       30.09R
STERLING       CLOUDY    59  54  82 NW3       30.10R
PEORIA         CLOUDY    64  54  69 CALM      30.06R
$$

NOTE: "FAIR" INDICATES FEW OR NO CLOUDS BELOW 12,000 FEET WITH NO
SIGNIFICANT WEATHER AND/OR OBSTRUCTIONS TO VISIBILITY. WIND
SPEEDS ARE IN MILES-PER-HOUR.



USA.gov is the U.S. government's official web portal to all federal, state and local government web resources and services.